Terminal Aerodrome Forecast
Issued by NWS Cleveland, OH

Home | Current Version | Previous Version | Graphics & Text | Print | Product List | Glossary On
Versions: 1 2 3 4 5 6 7 8 9 10 11 12 13 14 15 16 17
000
FTUS41 KCLE 181505 AAA
TAFTOL
TAF AMD
KTOL 181505Z 1815/1912 26005KT P6SM OVC028
     FM181700 10006KT P6SM SCT030
     FM182200 07009KT P6SM -RA OVC028
     FM190000 06009KT 5SM -RA OVC015
     FM190300 04012G20KT 4SM -RASN OVC007
     FM190500 01012G20KT 4SM -SN OVC005
     FM191000 34012G20KT P6SM OVC010=

USA.gov is the U.S. government's official web portal to all federal, state and local government web resources and services.